Content
SEND FEEDBACK

Daily
Averages
Monthly
Summary
United States of America

PYGA BEACH, GUAM


Home > North America > United States > Guam
Elevation: 20 feet     Latitude: 13 17N     Longitude: 144 39E

WEATHER
 
SELECT A DAY
Number of Records: 351,620;   Date Range: 1/1/95 - 10/20/14
 
SHARE

PRINT THIS DATA

[ ← Previous Day ]
WEATHER ALMANAC - MAY 4, 2014
[ Next Day → ]
[ °C ]   °F
Weather ElementAverageHighLow
Temperature80.9 °F84.7 °F (2:58 pm)77 °F (5:08 am)
Dewpoint76 °F78.8 °F (12:05 pm)73.4 °F (5:08 am)
Humidity85.2 %94 % (3:18 am)74 % (2:38 pm)
Barometer29.89 in29.97 in (10:03 pm)29.83 in (2:58 pm)
Wind Speed11 mph17.3 mph (5:09 am)
Wind Gust19.6 mph (5:03 am)
Weather ElementAverage
Visibility9.8 mi
Wind DirectionESE (103.1 °)

Weather ElementTotal
Precipitation0.04 in
Cooling Degree Days15.9 (Base 65)
Growing Degree Days30.9 (Base 50)
Averaged from 110 records on May 4, 2014
WEATHER CONDITIONS BREAKOUT
WIND DIRECTION BREAKOUT
WEATHER BY HOUR - MAY 4, 2014
[ °C ]   °F
Local TimeTemperatureDewpointHumidityBarometerVisibilityWind DirectionWind SpeedGust SpeedPrecipitationEventsConditions
12:08 AM80.6 °F75.2 °F84 %29.91 in10.0 miESE (110°)9.2 mphMostly Cloudy
12:13 AM80.6 °F75.2 °F84 %29.91 in10.0 miEast (100°)10.4 mphMostly Cloudy
12:23 AM78.8 °F75.2 °F89 %29.90 in10.0 miEast (100°)10.4 mphScattered Clouds
12:38 AM80.6 °F75.2 °F84 %29.90 in10.0 miEast (100°)10.4 mphMostly Cloudy
12:48 AM80.6 °F75.2 °F84 %29.90 in10.0 miEast (100°)11.5 mphMostly Cloudy
12:53 AM80.6 °F75.2 °F84 %29.90 in10.0 miESE (110°)11.5 mphMostly Cloudy
12:58 AM79.7 °F74.7 °F84 %29.87 in10.0 miESE (110°)10.4 mphMostly Cloudy
1:08 AM78.8 °F75.2 °F89 %29.89 in10.0 miEast (100°)11.5 mphScattered Clouds
1:23 AM78.8 °F75.2 °F89 %29.90 in10.0 miEast (100°)10.4 mphMostly Cloudy
1:28 AM78.8 °F75.2 °F89 %29.89 in10.0 miEast (100°)10.4 mphScattered Clouds
1:58 AM79.5 °F74.7 °F85 %29.86 in10.0 miESE (110°)9.2 mphPartly Cloudy
2:13 AM78.8 °F75.2 °F89 %29.89 in10.0 miEast (100°)9.2 mphMostly Cloudy
2:18 AM78.8 °F75.2 °F89 %29.89 in10.0 miESE (110°)9.2 mphMostly Cloudy
2:23 AM78.8 °F75.2 °F89 %29.88 in10.0 miEast (100°)10.4 mphMostly Cloudy
2:28 AM78.8 °F75.2 °F89 %29.88 in10.0 miEast (100°)9.2 mphMostly Cloudy
2:38 AM78.8 °F75.2 °F89 %29.88 in10.0 miESE (110°)8.1 mphMostly Cloudy
2:43 AM78.8 °F75.2 °F89 %29.88 in10.0 miEast (100°)8.1 mphMostly Cloudy
2:53 AM78.8 °F75.2 °F89 %29.88 in10.0 miEast (100°)6.9 mphMostly Cloudy
2:58 AM79.3 °F74.8 °F86 %29.86 in10.0 miEast (90°)9.2 mphMostly Cloudy
3:18 AM78.8 °F77.0 °F94 %29.87 in10.0 miEast (90°)11.5 mphMostly Cloudy
3:28 AM78.8 °F75.2 °F89 %29.87 in10.0 miEast (90°)9.2 mphMostly Cloudy
3:33 AM78.8 °F75.2 °F89 %29.88 in10.0 miEast (80°)10.4 mphMostly Cloudy
3:43 AM78.8 °F75.2 °F89 %29.87 in10.0 miEast (90°)10.4 mphMostly Cloudy
3:58 AM78.8 °F75.2 °F89 %29.84 in10.0 miEast (90°)10.4 mphOvercast
4:18 AM78.8 °F75.2 °F89 %29.87 in10.0 miEast (100°)8.1 mphMostly Cloudy
4:23 AM78.8 °F77.0 °F94 %29.87 in10.0 miEast (90°)8.1 mphMostly Cloudy
4:28 AM78.8 °F77.0 °F94 %29.87 in10.0 miEast (100°)9.2 mphMostly Cloudy
4:38 AM78.8 °F77.0 °F94 %29.87 in10.0 miEast (90°)8.1 mphMostly Cloudy
4:48 AM78.8 °F75.2 °F89 %29.87 in10.0 miEast (80°)10.4 mphMostly Cloudy
4:53 AM78.8 °F75.2 °F89 %29.87 in10.0 miEast (90°)10.4 mphMostly Cloudy
4:58 AM78.6 °F75.0 °F89 %29.84 in10.0 miEast (90°)10.4 mphMostly Cloudy
5:03 AM78.8 °F75.2 °F89 %29.88 in10.0 miESE (120°)16.1 mph19.6 mphMostly Cloudy
5:08 AM77.0 °F73.4 °F89 %29.88 in10.0 miSE (130°)15.0 mph19.6 mphMostly Cloudy
5:09 AM77.0 °F73.4 °F89 %29.88 in10.0 miSE (140°)17.3 mphRainLight Rain
5:14 AM77.0 °F73.4 °F89 %29.88 in10.0 miSE (140°)12.7 mph19.6 mphRainLight Rain
5:22 AM77.0 °F75.2 °F94 %29.88 in10.0 miSE (130°)9.2 mphMostly Cloudy
5:27 AM77.0 °F75.2 °F94 %29.87 in10.0 miSE (130°)8.1 mphMostly Cloudy
5:58 AM78.4 °F75.0 °F89 %29.84 in10.0 miESE (110°)11.5 mph0.00 inScattered Clouds
6:28 AM78.8 °F75.2 °F89 %29.88 in10.0 miEast (100°)12.7 mphMostly Cloudy
6:38 AM78.8 °F75.2 °F89 %29.89 in10.0 miEast (100°)11.5 mphMostly Cloudy
6:48 AM78.8 °F75.2 °F89 %29.88 in10.0 miEast (100°)12.7 mphMostly Cloudy
6:58 AM79.5 °F75.7 °F88 %29.86 in10.0 miEast (90°)12.7 mphScattered Clouds
7:18 AM80.6 °F75.2 °F84 %29.89 in10.0 miEast (100°)12.7 mphMostly Cloudy
7:53 AM80.6 °F77.0 °F89 %29.91 in10.0 miESE (110°)10.4 mphMostly Cloudy
7:58 AM80.6 °F77.0 °F89 %29.88 in10.0 miESE (110°)9.2 mphMostly Cloudy
8:03 AM80.6 °F77.0 °F89 %29.91 in10.0 miESE (120°)10.4 mphMostly Cloudy
8:08 AM82.4 °F77.0 °F84 %29.91 in10.0 miESE (110°)10.4 mphScattered Clouds
8:58 AM82.0 °F76.1 °F82 %29.89 in10.0 miEast (100°)11.5 mphScattered Clouds
9:13 AM84.2 °F77.0 °F79 %29.93 in10.0 miEast (90°)13.8 mphMostly Cloudy
9:23 AM84.2 °F77.0 °F79 %29.93 in10.0 miESE (110°)11.5 mphScattered Clouds
9:33 AM84.2 °F77.0 °F79 %29.93 in10.0 miEast (90°)10.4 mphMostly Cloudy
9:38 AM82.4 °F77.0 °F84 %29.93 in10.0 miEast (100°)10.4 mphMostly Cloudy
9:58 AM83.3 °F76.6 °F80 %29.91 in10.0 miEast (100°)11.5 mphMostly Cloudy
10:53 AM84.2 °F77.0 °F79 %29.92 in10.0 miESE (120°)9.2 mphMostly Cloudy
10:58 AM84.2 °F76.6 °F78 %29.89 in10.0 miEast (100°)10.4 mphScattered Clouds
11:49 AM82.4 °F75.2 °F79 %29.92 in8.0 miSSE (150°)11.5 mphRainLight Rain
11:54 AM80.6 °F77.0 °F89 %29.92 in4.0 miESE (110°)6.9 mphRainRain
11:58 AM80.8 °F77.2 °F89 %29.89 in3.0 miEast (100°)6.9 mph0.02 inRainRain
12:05 PM80.6 °F78.8 °F94 %29.91 in8.0 miEast (90°)5.8 mphMostly Cloudy
12:10 PM82.4 °F78.8 °F89 %29.91 in10.0 miESE (120°)9.2 mphMostly Cloudy
12:15 PM82.4 °F78.8 °F89 %29.91 in10.0 miESE (120°)8.1 mphMostly Cloudy
12:20 PM82.4 °F78.8 °F89 %29.91 in10.0 miEast (100°)10.4 mphMostly Cloudy
12:58 PM84.6 °F77.2 °F78 %29.86 in10.0 miEast (100°)11.5 mph0.02 inScattered Clouds
1:43 PM84.2 °F77.0 °F79 %29.87 in10.0 miESE (120°)11.5 mphMostly Cloudy
1:48 PM84.2 °F77.0 °F79 %29.87 in10.0 miESE (120°)12.7 mphScattered Clouds
1:53 PM84.2 °F77.0 °F79 %29.87 in10.0 miEast (100°)11.5 mphMostly Cloudy
1:58 PM84.0 °F77.0 °F79 %29.84 in10.0 miESE (110°)10.4 mphMostly Cloudy
2:33 PM84.2 °F77.0 °F79 %29.86 in10.0 miESE (110°)10.4 mphMostly Cloudy
2:38 PM84.2 °F75.2 °F74 %29.86 in10.0 miESE (120°)13.8 mphScattered Clouds
2:58 PM84.7 °F76.5 °F76 %29.83 in10.0 miEast (100°)13.8 mphScattered Clouds
3:13 PM84.2 °F77.0 °F79 %29.86 in10.0 miEast (100°)11.5 mphMostly Cloudy
3:28 PM84.2 °F77.0 °F79 %29.86 in10.0 miESE (110°)13.8 mphMostly Cloudy
3:33 PM84.2 °F77.0 °F79 %29.86 in10.0 miESE (110°)11.5 mphScattered Clouds
3:38 PM84.2 °F77.0 °F79 %29.86 in10.0 miEast (100°)11.5 mphMostly Cloudy
3:43 PM84.2 °F77.0 °F79 %29.86 in10.0 miEast (100°)11.5 mphMostly Cloudy
3:58 PM84.0 °F76.6 °F78 %29.83 in10.0 miESE (110°)12.7 mphScattered Clouds
4:03 PM84.2 °F77.0 °F79 %29.86 in10.0 miESE (110°)13.8 mphMostly Cloudy
4:13 PM84.2 °F77.0 °F79 %29.86 in10.0 miESE (120°)13.8 mphScattered Clouds
4:23 PM84.2 °F77.0 °F79 %29.85 in10.0 miESE (120°)12.7 mphScattered Clouds
4:33 PM84.2 °F77.0 °F79 %29.86 in10.0 miESE (110°)10.4 mphMostly Cloudy
4:43 PM82.4 °F77.0 °F84 %29.86 in10.0 miESE (120°)10.4 mphScattered Clouds
4:58 PM82.4 °F75.2 °F79 %29.83 in10.0 miESE (120°)11.5 mphMostly Cloudy
5:23 PM82.4 °F75.2 °F79 %29.87 in10.0 miEast (100°)12.7 mphScattered Clouds
5:28 PM82.4 °F75.2 °F79 %29.87 in10.0 miESE (110°)9.2 mphScattered Clouds
5:33 PM82.4 °F77.0 °F84 %29.87 in10.0 miEast (100°)10.4 mphScattered Clouds
5:38 PM82.4 °F75.2 °F79 %29.87 in10.0 miEast (90°)11.5 mphMostly Cloudy
5:43 PM82.4 °F75.2 °F79 %29.88 in10.0 miEast (100°)10.4 mphMostly Cloudy
5:48 PM80.6 °F75.2 °F84 %29.88 in10.0 miEast (100°)11.5 mphScattered Clouds
5:53 PM80.6 °F75.2 °F84 %29.88 in10.0 miEast (100°)8.1 mphMostly Cloudy
5:58 PM81.5 °F75.9 °F83 %29.86 in10.0 miEast (100°)10.4 mphMostly Cloudy
6:33 PM80.6 °F75.2 °F84 %29.90 in10.0 miEast (100°)10.4 mphMostly Cloudy
6:38 PM80.6 °F75.2 °F84 %29.90 in10.0 miEast (100°)12.7 mphScattered Clouds
6:58 PM80.8 °F76.3 °F86 %29.88 in10.0 miEast (100°)10.4 mphPartly Cloudy
7:04 PM80.6 °F77.0 °F89 %29.91 in10.0 miEast (100°)10.4 mphRainLight Rain
7:16 PM80.6 °F77.0 °F89 %29.91 in10.0 miEast (100°)11.5 mphScattered Clouds
7:58 PM80.2 °F76.3 °F88 %29.91 in10.0 miEast (100°)11.5 mph0.00 inScattered Clouds
8:13 PM80.6 °F77.0 °F89 %29.93 in10.0 miEast (90°)11.5 mphMostly Cloudy
8:18 PM80.6 °F77.0 °F89 %29.94 in10.0 miEast (90°)12.7 mphMostly Cloudy
8:23 PM80.6 °F77.0 °F89 %29.94 in10.0 miEast (90°)11.5 mphMostly Cloudy
8:58 PM80.2 °F76.1 °F87 %29.92 in10.0 miEast (90°)13.8 mphMostly Cloudy
9:03 PM80.6 °F75.2 °F84 %29.95 in10.0 miEast (90°)12.7 mphScattered Clouds
9:58 PM80.2 °F75.7 °F86 %29.94 in10.0 miEast (80°)15.0 mphScattered Clouds
10:03 PM80.6 °F75.2 °F84 %29.97 in10.0 miEast (80°)13.8 mphMostly Cloudy
10:58 PM80.6 °F75.2 °F84 %29.94 in10.0 miEast (90°)12.7 mphScattered Clouds
11:03 PM80.6 °F75.2 °F84 %29.97 in10.0 miEast (90°)10.4 mphMostly Cloudy
11:18 PM80.6 °F75.2 °F84 %29.96 in10.0 miEast (100°)11.5 mphMostly Cloudy
11:23 PM80.6 °F75.2 °F84 %29.96 in10.0 miEast (90°)12.7 mphMostly Cloudy
11:38 PM80.6 °F75.2 °F84 %29.96 in10.0 miEast (100°)12.7 mphScattered Clouds
11:53 PM80.6 °F75.2 °F84 %29.95 in10.0 miEast (90°)13.8 mphMostly Cloudy
11:58 PM80.1 °F75.9 °F87 %29.92 in10.0 miEast (90°)12.7 mphMostly Cloudy
Hourly data recorded from PGUA, located miles away from Pyga Beach, Guam







STORIES FROM OUR PARTNERS